Flag for U.S.A. Weather past 2 weeks in Salt Lake City, Utah, U.S.A.

Now
64 °F

Light rain. Mostly cloudy.


Feels Like: 64 °F
Forecast: 67 / 76 °F
Wind: 6 mph from West

Location: Salt Lake City International Airport

Current Time: Aug 3, 2015 at 1:55:12 PM

Latest Report: Aug 3, 2015 at 12:53 PM


Visibility: 8 mi

Pressure: 30.00 "Hg (25.71 "Hg at 1312m altitude)

Humidity: 84%

Dew point: 59 °F

Location of Salt Lake CityLocation

Historic Weather in Salt Lake City — Graph

°F

Salt Lake City temperature yesterday

Maximum temperature yesterday: 91 °F (at 2:53 PM)
Minimum temperature yesterday: 67 °F (at 4:53 AM)
Average temperature yesterday: 79 °F

Past Weeks' High & Low Weather Summary

 TemperatureHumidityPressure
High103 °F (Jul 21, 4:53 PM)96% (Aug 3, 11:53 AM)30.17 "Hg (Aug 3, 11:53 AM)
Low54 °F (Jul 29, 5:53 AM)6% (Jul 26, 3:53 PM)29.56 "Hg (Jul 26, 11:53 PM)
Average76 °F33%29.92 "Hg
* Reported Jul 19 12:53 PM — Aug 3 12:53 PM, Salt Lake City, Weather by CustomWeather, © 2015

Note: Actual official high and low records may vary slightly from our data, if they occured in-between our weather recording intervals... More about our weather records

Advertising

Salt Lake City weather history for previous 24 hours

 ConditionsComfort  
Time TempWeatherWind HumidityBarometerVisibility
12:53 PM
Mon, Aug 3
64 °FLight rain. Mostly cloudy.6 mph84%30.00 "Hg8 mi
11:53 AM62 °FRain. Cloudy.7 mph96%29.99 "Hg7 mi
11:02 AM63 °FLight rain. Fog.12 mph90%30.11 "Hg6 mi
10:53 AM63 °FLight rain. Cloudy.12 mph90%29.97 "Hg8 mi
9:53 AM63 °FLight rain. Mostly cloudy.10 mph90%29.96 "Hg10 mi
8:53 AM63 °FLight rain. Mostly cloudy.8 mph90%29.94 "Hg10 mi
7:53 AM63 °FRain. Fog.15 mph90%29.92 "Hg6 mi
6:53 AM64 °FLight rain. Overcast.10 mph90%29.91 "Hg10 mi
5:53 AM65 °FLight rain. Overcast.7 mph87%29.90 "Hg9 mi
4:53 AM65 °FLight rain. Overcast.6 mph85%29.89 "Hg10 mi
3:53 AM67 °FLight rain. Mostly cloudy.10 mph73%29.87 "Hg10 mi
2:53 AM70 °FLight rain. Overcast.17 mph61%29.83 "Hg10 mi
1:53 AM74 °FPartly cloudy.18 mph46%29.81 "Hg10 mi
12:53 AM75 °FMostly cloudy.18 mph47%29.81 "Hg10 mi
11:53 PM
Sun, Aug 2
76 °FMostly cloudy.12 mph43%29.80 "Hg10 mi
10:53 PM77 °FOvercast.13 mph37%29.78 "Hg10 mi
9:53 PM77 °FOvercast.13 mph39%29.79 "Hg10 mi
8:53 PM79 °FCloudy.10 mph35%29.78 "Hg10 mi
7:53 PM81 °FCloudy.18 mph32%29.79 "Hg10 mi
6:53 PM82 °FCloudy.22 mph31%29.79 "Hg10 mi
5:53 PM83 °FBroken clouds.21 mph28%29.80 "Hg10 mi
5:02 PM82 °FLight rain. Cloudy.30 mph29%29.95 "Hg7 mi
4:01 PM90 °FThunderstorms. Broken clouds.10 mph14%29.97 "Hg10 mi
2:53 PM91 °FBroken clouds.10 mph13%29.77 "Hg10 mi
1:53 PM90 °FPartly sunny.12 mph15%29.78 "Hg10 mi
Weather by CustomWeather, © 2015

See weather overviewHow to use our weather pages